Total_Precipitation_Accumulation
0.00 0.00 0.01 0.01 0.00 0.01 0.03 0.03 0.04 0.05 0.03 0.05 0.13 0.22 0.23 0.24 0.35 0.43 0.59 0.76 0.95 1.04 1.31 1.54 1.60 1.71 1.78 2.06 2.30 2.52 2.96 3.12 3.03 2.81 2.49 2.31 2.19 2.14 2.06 1.93 1.80 1.78 1.79 1.88
0.01 0.02 0.01 0.00 0.01 0.01 0.03 0.04 0.03 0.06 0.05 0.05 0.11 0.24 0.29 0.38 0.51 0.52 0.55 0.63 0.77 1.06 1.26 1.43 1.49 1.45 1.70 2.17 2.47 2.50 2.46 2.59 2.65 2.57 2.47 2.43 2.47 2.24 2.03 1.92 1.75 1.64 1.69 1.80
0.02 0.03 0.01 0.01 0.01 0.01 0.02 0.03 0.04 0.08 0.07 0.06 0.10 0.29 0.41 0.50 0.56 0.64 0.75 0.78 0.85 1.09 1.30 1.40 1.41 1.36 1.42 1.58 1.77 1.89 1.92 1.84 1.83 1.90 2.05 2.13 2.18 1.99 1.82 1.73 1.67 1.58 1.55 1.52
0.02 0.02 0.02 0.03 0.03 0.03 0.04 0.03 0.02 0.02 0.04 0.09 0.17 0.44 0.66 0.60 0.67 0.83 0.84 0.84 1.00 1.21 1.16 1.17 1.23 1.19 1.22 1.32 1.42 1.44 1.46 1.46 1.50 1.60 1.71 1.72 1.71 1.62 1.59 1.60 1.52 1.46 1.41 1.37
0.04 0.03 0.02 0.04 0.04 0.03 0.03 0.02 0.02 0.02 0.04 0.07 0.17 0.39 0.70 0.93 0.96 0.88 0.84 0.78 0.92 0.98 0.89 0.85 0.90 0.91 0.94 0.97 1.08 1.17 1.26 1.26 1.27 1.30 1.35 1.39 1.38 1.39 1.41 1.35 1.28 1.22 1.20 1.26
0.03 0.04 0.03 0.03 0.02 0.03 0.02 0.03 0.05 0.09 0.10 0.21 0.29 0.40 0.72 1.03 1.17 0.93 0.84 0.77 0.83 0.83 0.80 0.85 0.83 0.79 0.81 0.89 0.98 1.05 1.11 1.13 1.14 1.15 1.17 1.18 1.18 1.19 1.19 1.15 1.16 1.13 1.08 1.02
0.09 0.09 0.06 0.04 0.03 0.03 0.03 0.05 0.21 0.38 0.48 0.57 0.43 0.52 0.87 0.92 0.91 0.84 0.80 0.83 0.83 0.76 0.71 0.69 0.69 0.71 0.76 0.77 0.77 0.79 0.82 0.88 0.84 0.83 0.88 0.90 0.90 0.90 0.91 0.91 0.88 0.83 0.75 0.73
0.14 0.18 0.10 0.06 0.05 0.05 0.06 0.09 0.32 0.41 0.33 0.43 0.44 0.71 1.09 0.89 0.83 0.75 0.76 0.85 0.79 0.63 0.56 0.55 0.53 0.54 0.57 0.54 0.52 0.55 0.60 0.67 0.71 0.70 0.70 0.62 0.58 0.57 0.57 0.65 0.65 0.61 0.57 0.55
0.07 0.07 0.05 0.05 0.05 0.07 0.10 0.14 0.18 0.32 0.27 0.32 0.43 0.70 0.92 0.79 0.77 0.80 0.89 0.92 0.83 0.62 0.48 0.43 0.40 0.39 0.37 0.36 0.40 0.46 0.52 0.56 0.61 0.60 0.56 0.51 0.46 0.43 0.43 0.47 0.53 0.53 0.58 0.53
0.03 0.02 0.03 0.03 0.04 0.07 0.10 0.10 0.12 0.26 0.30 0.33 0.34 0.67 0.88 0.98 0.96 0.88 0.91 0.80 0.58 0.44 0.34 0.29 0.25 0.24 0.24 0.25 0.30 0.38 0.42 0.42 0.43 0.44 0.43 0.38 0.36 0.37 0.39 0.40 0.42 0.44 0.47 0.49
0.01 0.01 0.03 0.05 0.06 0.07 0.11 0.14 0.21 0.29 0.29 0.37 0.42 0.56 0.58 0.67 0.79 0.85 0.79 0.61 0.40 0.29 0.21 0.20 0.20 0.20 0.21 0.21 0.25 0.32 0.39 0.42 0.43 0.42 0.41 0.35 0.30 0.29 0.30 0.31 0.33 0.38 0.41 0.44
0.01 0.01 0.02 0.06 0.08 0.07 0.08 0.12 0.20 0.32 0.29 0.31 0.38 0.45 0.29 0.31 0.42 0.45 0.42 0.34 0.27 0.21 0.19 0.21 0.23 0.23 0.21 0.23 0.27 0.34 0.39 0.44 0.48 0.49 0.50 0.46 0.40 0.36 0.34 0.32 0.30 0.31 0.34 0.38
0.01 0.01 0.03 0.16 0.26 0.15 0.10 0.09 0.11 0.15 0.17 0.17 0.26 0.30 0.21 0.25 0.32 0.41 0.49 0.49 0.41 0.32 0.23 0.19 0.21 0.23 0.24 0.28 0.33 0.43 0.48 0.50 0.52 0.58 0.65 0.64 0.51 0.46 0.46 0.40 0.34 0.32 0.31 0.31
0.00 0.01 0.03 0.10 0.10 0.08 0.09 0.09 0.07 0.12 0.20 0.18 0.16 0.21 0.22 0.25 0.32 0.40 0.44 0.40 0.32 0.25 0.20 0.17 0.20 0.23 0.26 0.29 0.29 0.32 0.36 0.38 0.44 0.46 0.55 0.66 0.61 0.50 0.38 0.30 0.31 0.33 0.33 0.34
0.01 0.00 0.01 0.02 0.03 0.05 0.09 0.08 0.07 0.08 0.14 0.25 0.19 0.16 0.19 0.20 0.20 0.24 0.25 0.21 0.17 0.16 0.14 0.15 0.18 0.21 0.25 0.25 0.22 0.19 0.17 0.17 0.23 0.28 0.35 0.44 0.39 0.33 0.30 0.27 0.21 0.19 0.24 0.29
0.00 0.00 0.00 0.01 0.03 0.05 0.08 0.10 0.07 0.05 0.05 0.09 0.12 0.17 0.18 0.18 0.19 0.20 0.19 0.17 0.16 0.16 0.13 0.12 0.14 0.17 0.19 0.16 0.11 0.08 0.08 0.11 0.18 0.24 0.29 0.36 0.35 0.28 0.23 0.19 0.14 0.14 0.20 0.27
0.01 0.01 0.00 0.01 0.03 0.04 0.10 0.10 0.06 0.03 0.03 0.04 0.13 0.21 0.19 0.20 0.19 0.18 0.16 0.14 0.12 0.10 0.08 0.07 0.06 0.06 0.05 0.05 0.04 0.05 0.06 0.07 0.15 0.24 0.32 0.37 0.42 0.41 0.31 0.18 0.15 0.18 0.24 0.32
0.03 0.01 0.00 0.00 0.03 0.14 0.12 0.05 0.03 0.03 0.02 0.03 0.06 0.09 0.10 0.09 0.07 0.06 0.06 0.05 0.03 0.03 0.03 0.03 0.02 0.02 0.02 0.02 0.04 0.07 0.06 0.08 0.13 0.23 0.31 0.34 0.38 0.40 0.36 0.30 0.28 0.32 0.38 0.44
0.03 0.01 0.01 0.01 0.03 0.10 0.06 0.04 0.05 0.06 0.04 0.03 0.03 0.04 0.04 0.04 0.04 0.06 0.03 0.02 0.01 0.01 0.01 0.01 0.02 0.01 0.02 0.02 0.06 0.11 0.12 0.15 0.20 0.30 0.39 0.40 0.42 0.42 0.37 0.34 0.38 0.42 0.48 0.49
0.02 0.02 0.02 0.02 0.05 0.10 0.07 0.07 0.08 0.06 0.11 0.08 0.05 0.04 0.03 0.02 0.08 0.10 0.04 0.01 0.01 0.01 0.01 0.02 0.02 0.03 0.04 0.07 0.11 0.16 0.22 0.27 0.35 0.44 0.50 0.49 0.53 0.56 0.51 0.52 0.53 0.53 0.56 0.52
0.01 0.01 0.03 0.04 0.07 0.09 0.07 0.06 0.05 0.09 0.16 0.04 0.02 0.01 0.01 0.02 0.05 0.05 0.02 0.01 0.01 0.01 0.02 0.03 0.04 0.04 0.07 0.10 0.14 0.24 0.29 0.33 0.37 0.40 0.48 0.55 0.61 0.68 0.72 0.77 0.73 0.69 0.65 0.62
0.01 0.03 0.04 0.06 0.12 0.13 0.05 0.02 0.03 0.05 0.02 0.01 0.01 0.01 0.02 0.02 0.01 0.01 0.01 0.01 0.01 0.02 0.03 0.04 0.06 0.06 0.08 0.11 0.18 0.25 0.29 0.32 0.36 0.41 0.50 0.57 0.63 0.63 0.73 0.97 0.97 0.98 0.93 0.81
0.01 0.02 0.03 0.03 0.05 0.02 0.01 0.01 0.01 0.01 0.01 0.02 0.02 0.01 0.02 0.02 0.02 0.02 0.02 0.02 0.02 0.02 0.03 0.05 0.09 0.11 0.14 0.18 0.29 0.41 0.38 0.39 0.44 0.50 0.57 0.61 0.62 0.70 0.84 0.98 1.02 1.06 1.02 0.90
0.00 0.01 0.01 0.03 0.01 0.01 0.01 0.01 0.01 0.01 0.01 0.01 0.01 0.01 0.02 0.03 0.03 0.03 0.03 0.03 0.04 0.04 0.06 0.09 0.14 0.21 0.29 0.34 0.41 0.51 0.48 0.49 0.54 0.57 0.60 0.63 0.68 0.72 0.80 0.96 0.98 0.98 0.95 0.93
0.00 0.00 0.01 0.03 0.02 0.01 0.02 0.02 0.01 0.00 0.01 0.01 0.01 0.02 0.02 0.03 0.04 0.04 0.04 0.05 0.05 0.06 0.07 0.13 0.22 0.31 0.39 0.47 0.53 0.57 0.61 0.67 0.71 0.66 0.64 0.68 0.73 0.78 0.85 0.92 0.97 0.93 0.88 0.79
0.01 0.02 0.03 0.04 0.04 0.05 0.05 0.03 0.01 0.01 0.01 0.01 0.02 0.02 0.03 0.04 0.05 0.04 0.05 0.05 0.05 0.07 0.08 0.14 0.21 0.31 0.40 0.49 0.56 0.61 0.71 0.84 0.92 0.91 0.81 0.81 0.84 0.88 0.94 0.94 0.85 0.71 0.63 0.50